Бабадайхан

Туркменистан     37°41′24″N   60°23′33″E
темп.,
°C
ветер,
м/с
пор.,
м/с
влажн.,
%
обл.,
%
осадки,
мм/ч
давл.,
гПа
погр.,
м
21 апреля, ср
ср2123:00+25св5926100 0.0 1014198
02:00+22всв593042 0.0 1015191
05:00+20всв510365 0.0 1017215
08:00+21всв683521 0.0 1018426
11:00+25всв55265 0.0 10181045
14:00+28всв542247 0.0 10171630
17:00+28св652114 0.0 10161886
20:00+25св7923100 0.0 1017379
22 апреля, чт
чт2223:00+22всв711215 0.0 1018413
02:00+20всв610215 0.0 1019300
05:00+18в610240 0.0 1020260
08:00+18в79245 0.0 1022471
11:00+22в65175 0.0 1023903
14:00+26всв5513100 0.0 10211216
17:00+26всв6675 0.0 10191283
20:00+23всв57105 0.0 1020107
23 апреля, пт
пт2323:00+21в451452 0.0 101954
02:00+19вюв5717100 0.0 101878
05:00+18вюв571723 0.0 101879
08:00+19вюв69165 0.0 1019285
11:00+26вюв77125 0.0 10181033
14:00+30в6675 0.0 10161464
17:00+31в6665 0.0 10141485
20:00+27вюв4575 0.0 101443
24 апреля, сб
сб2423:00+24вюв44963 0.0 101429
02:00+22юв4614100 0.0 101472
05:00+21юв3418100 0.0 101530
08:00+22зюз3515100 0.0 1018200
11:00+27сз441393 0.0 1018975
14:00+30сз431774 0.0 10161866
17:00+30ссв321477 0.0 10151862
20:00+28с331598 0.0 101534
25 апреля, вс
вс2523:00+25ссз3319100 0.0 101619
02:00+24ссз332280 0.0 101622
05:00+22с453299 0.0 101680
08:00+23сз453265 0.0 1018232
11:00+28ссз552285 0.0 10181203
14:00+31с431681 0.0 10162128
17:00+32ссв4414100 0.0 10152156
20:00+29ссв441699 0.0 101536